x

8773037 - Seadrift, Tx (sdrt2) Weather Station

5:54am - Sun 30th Apr 2017 All times are CDT. -5 hours from GMT.

  • Wind
    7mph, 9mph gusts
  • Sea Temp 77°f
  • Air Temp 64°f
  • Sea Pressure 1010.1mb
  • 8773037 - Seadrift, Tx
  • 8773037 - Seadrift, Tx

More Historic Weather Station data

Upgrade to MSW Pro to gain access to the past 30 days of data for over 8000 Wavebouys and Weather Stations around the globe.

Join Pro

Comparision Forecast

View Surf forecast
   
Sun 04/30 5:54am 7 9 mph 1010.1mb 77f 64f
5:48am 7 10 mph 1010.2mb 77f 64f
5:42am 5 8 mph 1010.1mb 77f 64f
5:36am 6 9 mph 1010.2mb 78f 64f
5:30am 5 9 mph 1010.2mb 78f 64f
5:24am 5 7 mph 1010.4mb 78f 64f
5:18am 3 10 mph 1010.4mb 78f 64f
5:12am 6 9 mph 1010.2mb 78f 64f
5:06am 6 8 mph 1010mb 78f 64f
5:00am 6 10 mph - 78f 64f
4:54am 7 10 mph - 78f 64f
4:48am 7 11 mph 1009.4mb 78f 64f
4:42am 8 14 mph 1009.1mb 78f 64f
4:36am 9 11 mph 1009.1mb 78f 64f
4:30am 7 9 mph 1009.4mb 78f 64f
4:24am 7 9 mph 1009.7mb 78f 64f
4:18am 6 11 mph 1010mb 78f 64f
4:12am 7 11 mph 1010.2mb 78f 64f
4:06am 7 11 mph 1010.2mb 78f 64f
4:00am 7 14 mph 1010.3mb 78f 64f
3:54am 8 13 mph 1010.3mb 78f 64f
3:48am 9 13 mph 1010.3mb 78f 64f
3:42am 8 14 mph 1010.1mb 78f 64f
3:36am 9 14 mph 1009.8mb 78f 64f
3:30am 9 16 mph 1009.6mb 78f 64f
3:24am 9 15 mph 1009.7mb 79f 64f
3:18am 8 15 mph 1009.7mb 79f 64f
3:12am 9 13 mph 1009.7mb 79f 64f
3:06am 8 16 mph 1009.8mb 79f -
3:00am 10 15 mph 1009.8mb 79f -
2:54am 11 18 mph 1010.1mb 79f -
2:48am 10 14 mph 1010.4mb 79f -
2:42am 10 15 mph 1010.3mb 79f -
2:36am 10 17 mph 1010.3mb 79f -
2:30am 11 17 mph 1010.1mb 79f -
2:24am 11 16 mph 1009.9mb 79f -
2:18am 11 17 mph 1009.8mb 79f -
2:12am 13 17 mph 1009.7mb 79f -
2:06am 13 17 mph 1009.7mb 79f -
2:00am 11 21 mph 1009.6mb 79f -
1:54am 11 20 mph 1009.4mb 80f -
1:48am 13 20 mph 1009.6mb 80f -
1:42am 14 22 mph 1009.5mb 80f -
1:36am 15 22 mph 1009.6mb 80f -
1:30am 17 24 mph 1009.3mb 80f -
1:24am 15 23 mph 1009.7mb 80f -
1:18am 10 20 mph 1008.3mb 80f -
1:12am 13 17 mph 1009mb 80f -
1:06am 11 18 mph 1009.3mb 80f -
1:00am 13 21 mph 1008.7mb 80f -
12:54am 14 24 mph 1008mb 80f -
12:48am 14 23 mph 1008mb 80f -
12:42am 15 23 mph 1008.7mb 81f -
12:36am 16 29 mph 1008.6mb 81f -
12:30am 23 32 mph 1008.3mb 81f -
12:24am 23 30 mph 1008.1mb 81f -
12:18am 23 31 mph 1007.8mb 81f -
12:12am 2 6 mph 1007.1mb 81f 81f
12:06am 3 5 mph 1006.8mb 81f 81f
12:00am 3 7 mph 1006.6mb 81f 81f
Sat 04/29 11:54pm 6 7 mph 1006.4mb 81f 81f
11:48pm 5 7 mph 1006.1mb 81f 81f
11:42pm 3 7 mph 1005.8mb 81f 81f
11:36pm 5 6 mph 1005.7mb 81f 81f
11:30pm 2 6 mph 1006mb 81f 81f
11:24pm 5 7 mph 1005.8mb 81f 81f
11:18pm 6 8 mph 1005.5mb 81f 81f
11:12pm 6 10 mph 1005.4mb 81f 81f
11:06pm 9 11 mph 1005.1mb 81f 81f
11:00pm 7 13 mph 1005mb 81f 81f
10:54pm 10 14 mph 1004.5mb 81f 81f
10:48pm 10 13 mph 1004.2mb 81f 81f
10:42pm 11 17 mph 1003.7mb 81f 81f
10:36pm 13 16 mph 1003.6mb 81f 81f
10:30pm 14 18 mph 1003.7mb 81f 81f
10:24pm 13 15 mph 1003.9mb 81f 81f
10:18pm 13 17 mph 1003.9mb 81f 81f
10:12pm 14 17 mph 1003.5mb 81f 81f
10:06pm 15 20 mph 1002.8mb 81f 81f
10:00pm 15 23 mph 1002.4mb 81f 81f
9:54pm 18 22 mph 1002mb 81f 80f
9:48pm 20 24 mph 1001.4mb 81f 80f
9:42pm 16 22 mph 1001.3mb 81f 80f
9:36pm 16 23 mph 1001.3mb 81f 80f
9:30pm 17 24 mph 1001.2mb 81f 80f
9:24pm 18 24 mph 1001.1mb 81f 80f
9:18pm 18 23 mph 1001.1mb 81f 81f
9:12pm 20 26 mph 1001.2mb 81f 81f
9:06pm 21 26 mph 1001mb 81f 81f
9:00pm 18 24 mph 1001.1mb 81f 81f
8:54pm 20 25 mph 1001mb 81f 81f
8:48pm 20 25 mph 1000.9mb 81f 81f
8:42pm 22 25 mph 1000.7mb 81f 81f
8:36pm 20 28 mph 1000.6mb 81f 81f
8:30pm 22 25 mph 1000.5mb 81f 81f
8:24pm 22 28 mph 1000.5mb 81f 81f
8:18pm 20 25 mph 1000.3mb 81f 81f
8:12pm 20 28 mph 1000.3mb 81f 81f
8:06pm 20 25 mph 1000.2mb 82f 81f
8:00pm 21 26 mph 1000.2mb 82f 81f
7:48pm 21 26 mph 1000.2mb 82f 81f
7:42pm 20 24 mph 1000.1mb 82f 81f
7:36pm 21 29 mph 1000.2mb 82f 81f
7:30pm 22 30 mph 1000.1mb 82f 81f
7:24pm 18 29 mph 1000mb 82f 81f
7:18pm 21 28 mph 1000mb 82f 81f
7:12pm 21 30 mph 999.9mb 82f 81f
7:06pm 24 30 mph 999.8mb 82f 81f
7:00pm 24 32 mph 999.8mb 82f 81f
6:54pm 24 31 mph 999.8mb 82f 81f
6:48pm 23 31 mph 999.8mb 82f 82f
6:42pm 21 26 mph 999.9mb 82f 82f
6:36pm 26 30 mph 999.7mb 82f 82f
6:30pm 23 29 mph 999.9mb 82f 82f
6:24pm 22 33 mph 999.9mb 82f 82f
6:18pm 24 32 mph 999.8mb 82f 82f
6:12pm 21 31 mph 999.7mb 82f 82f
6:06pm 24 32 mph 999.7mb 82f 82f
6:00pm 24 30 mph 999.7mb 82f 82f
5:48pm 23 29 mph 999.6mb 82f 82f
5:42pm 21 28 mph 999.8mb 82f 82f
5:36pm 24 29 mph 999.8mb 82f 82f
5:30pm 22 30 mph 999.8mb 82f 82f
5:24pm 25 32 mph 999.7mb 82f 82f
5:18pm 23 30 mph 999.8mb 82f 82f
5:12pm 23 30 mph 999.8mb 82f 82f
5:06pm 25 30 mph 999.8mb 82f 82f
5:00pm 23 31 mph 999.8mb 82f 82f
4:48pm 25 33 mph 999.8mb 82f 82f
4:42pm 26 32 mph 999.9mb 82f 82f
4:36pm 24 31 mph 1000mb 82f 82f
4:30pm 24 28 mph 1000.1mb 82f 82f
4:24pm 25 30 mph 1000.2mb 82f 82f
4:18pm 25 30 mph 1000.2mb 82f 82f
4:12pm 23 29 mph 1000.3mb 82f 82f
4:06pm 23 29 mph 1000.4mb 82f 82f
4:00pm 22 29 mph 1000.5mb 81f 82f
3:54pm 22 30 mph 1000.6mb 81f 82f
3:48pm 23 28 mph 1000.6mb 81f 82f
3:42pm 24 31 mph 1000.6mb 81f 82f
3:36pm 26 31 mph 1000.5mb 81f 82f
3:30pm 23 29 mph 1000.6mb 81f 82f
3:24pm 23 28 mph 1000.7mb 81f 82f
3:18pm 22 26 mph 1000.8mb 81f 82f
3:12pm 23 29 mph 1000.8mb 81f 82f
3:06pm 24 28 mph 1000.9mb 81f 82f
3:00pm 21 29 mph 1001mb 81f 82f
2:54pm 21 26 mph 1001mb 81f 82f
2:48pm 22 32 mph 1001mb 81f 82f
2:42pm 23 30 mph 1000.9mb 81f 82f
2:36pm 25 30 mph 1001mb 81f 82f
2:30pm 26 30 mph 1000.9mb 81f 82f
2:24pm 23 30 mph 1000.9mb 81f 82f
2:18pm 22 28 mph 1001mb 81f 82f
2:12pm 22 30 mph 1001.2mb 81f 82f
2:06pm 22 26 mph 1001.2mb 81f 82f
2:00pm 25 32 mph 1001.1mb 81f 82f
1:54pm 25 30 mph 1001.1mb 81f 82f
1:48pm 23 31 mph 1001.1mb 81f 82f
1:42pm 23 29 mph 1001.3mb 81f 82f
1:36pm 26 32 mph 1001.3mb 81f 82f
1:30pm 26 32 mph 1001.3mb 81f 82f
1:24pm 28 31 mph 1001.3mb 81f 82f
1:18pm 25 30 mph 1001.4mb 80f 82f
1:12pm 25 34 mph 1001.4mb 80f 82f
1:06pm 26 31 mph 1001.4mb 80f 82f
1:00pm 25 33 mph 1001.6mb 80f 82f
12:54pm 23 30 mph 1001.8mb 80f 82f
12:48pm 23 30 mph 1002mb 80f 82f
12:42pm 23 30 mph 1002.1mb 80f 82f
12:36pm 24 31 mph 1002.2mb 80f 82f
12:30pm 24 31 mph 1002.2mb 80f 82f
12:24pm 25 31 mph 1002.3mb 80f 82f
12:18pm 22 36 mph 1002.4mb 80f 83f
12:12pm 28 32 mph 1002.3mb 80f 82f
12:06pm 26 32 mph 1002.3mb 80f 82f
12:00pm 29 34 mph 1002.3mb 80f 83f
11:54am 28 34 mph 1002.3mb 80f 83f
11:48am 23 38 mph 1002.6mb 80f 83f
11:42am 24 36 mph 1002.5mb 80f 83f
11:36am 28 40 mph 1002.3mb 80f 83f
11:30am 28 33 mph 1002.4mb 80f 83f
11:24am 28 39 mph 1002.6mb 80f 83f
11:18am 31 36 mph 1002.6mb 80f 83f
11:12am 29 32 mph 1002.8mb 80f 83f
11:06am 24 33 mph 1003.1mb 80f 83f
11:00am 26 34 mph 1003.1mb 80f 82f
10:54am 23 33 mph 1003mb 80f 82f
10:48am 26 32 mph 1003mb 80f 82f
10:42am 24 31 mph 1003.1mb 79f 82f
10:36am 24 33 mph 1003.1mb 79f 82f
10:30am 22 30 mph 1003mb 79f 82f
10:24am 26 32 mph 1002.7mb 79f 82f
10:18am 23 33 mph 1002.6mb 79f 82f
10:12am 24 30 mph 1002.4mb 79f 82f
10:06am 28 33 mph 1002.3mb 79f 82f
9:48am 23 36 mph 1002.4mb 79f 82f
9:42am 24 33 mph 1002.4mb 79f 82f
9:36am 30 36 mph 1002.4mb 79f 82f
9:30am 25 36 mph 1002.4mb 79f 81f
9:24am 25 34 mph 1002.4mb 79f 81f
9:18am 28 33 mph 1002.4mb 79f 81f
9:12am 28 36 mph 1002.5mb 79f 81f
9:06am 25 36 mph 1002.5mb 79f 81f
9:00am 26 33 mph 1002.7mb 79f 81f
8:54am 26 34 mph 1002.6mb 79f 81f
8:48am 24 33 mph 1002.7mb 79f 81f
8:42am 29 34 mph 1002.5mb 79f 80f
8:36am 24 30 mph 1002.5mb 79f 80f
8:30am 25 36 mph 1002.5mb 79f 80f
8:24am 24 32 mph 1002.4mb 79f 80f
8:18am 25 33 mph 1002.4mb 79f 80f
8:12am 25 32 mph 1002.4mb 79f 80f
8:06am 24 31 mph 1002.3mb 79f 80f
8:00am 25 32 mph 1002.3mb 79f 80f
7:54am 23 29 mph 1002.4mb 79f 80f
7:48am 22 32 mph 1002.3mb 79f 80f
7:42am 22 30 mph 1002.3mb 79f 80f
7:36am 21 29 mph 1002.2mb 79f 80f
7:30am 23 30 mph 1002.2mb 79f 80f
7:24am 22 28 mph 1002.3mb 79f 80f
7:18am 20 26 mph 1002.4mb 79f 80f
7:12am 23 28 mph 1002.4mb 79f 80f
7:06am 16 28 mph 1002.5mb 79f 80f
7:00am 18 23 mph 1002.5mb 79f 79f
6:54am 20 25 mph 1002.5mb 79f 80f
6:48am 21 26 mph 1002.4mb 79f 79f
6:42am 18 25 mph 1002.5mb 79f 79f
6:36am 16 28 mph 1002.5mb 79f 80f
6:30am 16 25 mph 1002.5mb 79f 80f
6:24am 18 24 mph 1002.4mb 79f 80f
6:18am 20 24 mph 1002.5mb 79f 80f
6:12am 21 26 mph 1002.5mb 79f 80f
6:06am 21 25 mph 1002.4mb 79f 80f
6:00am 20 28 mph 1002.4mb 79f 80f
5:54am 23 28 mph 1002.2mb 79f 80f
5:48am 18 24 mph 1002.3mb 79f 80f
5:42am 20 26 mph 1002.3mb 79f 80f
5:36am 21 28 mph 1002.2mb 79f 80f
5:30am 20 23 mph 1002.3mb 79f 80f
5:24am 20 28 mph 1002.4mb 79f 80f
5:18am 18 25 mph 1002.4mb 79f 80f
5:12am 17 24 mph 1002.4mb 79f 80f
5:06am 18 26 mph 1002.4mb 79f 80f
5:00am 21 28 mph 1002.4mb 79f 80f
4:54am 17 22 mph 1002.4mb 79f 80f
4:48am 21 25 mph 1002.4mb 79f 80f
4:42am 20 25 mph 1002.5mb 79f 80f
4:36am 22 28 mph 1002.4mb 79f 80f
4:30am 21 28 mph 1002.3mb 79f 80f
4:24am 20 30 mph 1002.4mb 79f 80f
4:18am 23 29 mph 1002.3mb 79f 80f
4:12am 22 29 mph 1002.3mb 79f 80f
4:06am 20 28 mph 1002.3mb 80f 80f
4:00am 23 29 mph 1002.2mb 80f 80f
3:54am 22 26 mph 1002.3mb 80f 80f
3:48am 20 31 mph 1002.5mb 80f 80f
3:42am 23 31 mph 1002.5mb 80f 80f
3:36am 23 31 mph 1002.5mb 80f 80f
3:30am 21 28 mph 1002.5mb 80f 80f
3:24am 21 30 mph 1002.6mb 80f 80f
3:18am 22 30 mph 1002.6mb 80f 80f
3:12am 23 29 mph 1002.7mb 80f 80f
3:06am 22 32 mph 1002.7mb 80f 80f
3:00am 23 28 mph 1002.6mb 80f 80f
2:54am 22 32 mph 1002.7mb 80f 80f
2:48am 24 31 mph 1002.8mb 80f 80f
2:42am 23 30 mph 1003mb 80f 80f
2:36am 20 28 mph 1003mb 80f 80f
2:30am 21 28 mph 1003.1mb 80f 80f
2:24am 22 28 mph 1003mb 80f 80f
2:18am 18 28 mph 1003mb 80f 80f
2:12am 20 32 mph 1003mb 80f 80f
2:06am 24 31 mph 1003mb 80f 80f
2:00am 24 31 mph 1003.1mb 80f 80f
1:54am 21 29 mph 1003.2mb 80f 80f
1:48am 22 26 mph 1003.1mb 80f 80f
1:42am 21 29 mph 1003.3mb 80f 80f
1:36am 22 26 mph 1003.3mb 80f 80f
1:30am 21 28 mph 1003.3mb 80f 80f
1:24am 21 28 mph 1003.3mb 80f 80f
1:18am 22 28 mph 1003.3mb 80f 80f
1:12am 24 30 mph 1003.2mb 80f 80f
1:06am 21 31 mph 1003.1mb 80f 80f
1:00am 23 28 mph 1003.1mb 80f 80f
12:54am 24 30 mph 1003.1mb 80f 80f
12:48am 22 29 mph 1003.1mb 80f -
12:42am 21 29 mph 1003.2mb 80f -
12:36am 23 30 mph 1003.3mb 80f -
12:30am 20 26 mph 1003.3mb 80f 80f
12:24am 18 31 mph 1003.2mb 80f 80f
12:18am 22 28 mph 1003.2mb 80f 80f
12:12am 22 30 mph 1003.3mb 80f 80f
12:06am 22 29 mph 1003.3mb 80f 80f
12:00am 21 28 mph 1003.5mb 80f 80f
Fri 04/28 11:54pm 20 28 mph 1003.7mb 80f 80f
11:48pm 21 30 mph 1003.6mb 80f 80f
11:42pm 22 31 mph 1003.6mb 80f 80f
11:36pm 21 26 mph 1003.7mb 80f 80f
11:30pm 23 29 mph 1003.7mb 80f 80f
11:24pm 23 28 mph 1003.6mb 80f 80f
11:18pm 20 30 mph 1003.7mb 80f 80f
11:12pm 21 30 mph 1003.8mb 80f 80f
11:06pm 24 29 mph 1003.7mb 80f 80f
11:00pm 22 28 mph 1003.9mb 80f 80f
10:54pm 20 24 mph 1003.9mb 80f 80f
10:48pm 20 25 mph 1004mb 80f 80f
10:42pm 17 25 mph 1004mb 80f 80f
10:36pm 15 22 mph 1004mb 80f 80f
10:30pm 18 23 mph 1004mb 80f 80f
10:24pm 15 21 mph 1003.9mb 80f 80f
10:18pm 16 21 mph 1003.9mb 80f 80f
10:12pm 16 22 mph 1003.7mb 80f 80f
10:06pm 17 22 mph 1003.7mb 81f 80f
10:00pm 16 24 mph 1003.6mb 81f 80f
9:54pm 21 26 mph 1003.6mb 81f 80f
9:48pm 18 24 mph 1003.5mb 81f 80f
9:42pm 16 21 mph 1003.5mb 81f 80f
9:36pm 15 22 mph 1003.4mb 81f 80f
9:30pm 17 21 mph 1003.3mb 81f 80f
9:24pm 16 20 mph 1003.3mb 81f 80f
9:18pm 13 20 mph 1003.2mb 81f 80f
9:12pm 16 23 mph 1003.1mb 81f 80f
9:06pm 16 23 mph 1003mb 81f 80f
9:00pm 18 23 mph 1002.9mb 81f 80f
8:54pm 16 22 mph 1003mb 81f 80f
8:48pm 15 20 mph 1002.9mb 81f 80f
8:42pm 15 22 mph 1002.7mb 81f 80f
8:36pm 18 25 mph 1002.6mb 81f 80f
8:30pm 14 22 mph 1002.5mb 81f 80f
8:24pm 15 23 mph 1002.3mb 81f 80f
8:18pm 15 23 mph 1002.4mb 81f 80f
8:12pm 16 24 mph 1002.3mb 81f 80f
8:06pm 16 22 mph 1002.2mb 81f 80f
8:00pm 18 25 mph 1002.1mb 81f 80f
7:48pm 21 25 mph 1002mb 81f 80f
7:42pm 18 23 mph 1001.9mb 81f 80f
7:36pm 18 25 mph 1001.9mb 81f 80f
7:30pm 20 26 mph 1001.8mb 81f 80f
7:24pm 18 23 mph 1001.9mb 81f 80f
7:18pm 17 24 mph 1001.8mb 81f 80f
7:12pm 20 25 mph 1001.8mb 81f 81f
7:06pm 18 26 mph 1001.8mb 81f 81f
7:00pm 21 28 mph 1001.8mb 81f 81f
6:48pm 17 25 mph 1001.7mb 81f 81f
6:42pm 17 23 mph 1001.6mb 81f 81f
6:36pm 17 22 mph 1001.6mb 81f 81f
6:30pm 17 23 mph 1001.6mb 81f 81f
6:24pm 18 23 mph 1001.5mb 81f 82f
6:18pm 16 22 mph 1001.5mb 82f 82f
6:12pm 17 22 mph 1001.5mb 82f 82f
6:06pm 21 25 mph 1001.4mb 82f 82f
6:00pm 18 23 mph 1001.4mb 82f 82f
5:54pm 18 24 mph 1001.4mb 82f 82f
5:48pm 18 24 mph 1001.3mb 82f 82f
5:42pm 17 22 mph 1001.5mb 82f 82f
5:36pm 18 26 mph 1001.4mb 82f 82f
5:30pm 17 24 mph 1001.4mb 82f 82f
5:24pm 18 25 mph 1001.4mb 82f 82f
5:18pm 21 25 mph 1001.3mb 81f 82f
5:12pm 22 26 mph 1001.3mb 81f 82f
5:06pm 20 25 mph 1001.5mb 81f 82f
5:00pm 20 25 mph 1001.6mb 81f 82f
4:48pm 18 24 mph 1001.6mb 81f 82f
4:42pm 20 24 mph 1001.6mb 81f 82f
4:36pm 18 22 mph 1001.6mb 81f 82f
4:24pm 20 26 mph 1001.8mb 81f 82f
4:18pm 18 25 mph 1001.8mb 81f 82f
4:12pm 20 25 mph 1001.8mb 81f 82f
4:06pm 20 24 mph 1001.9mb 81f 82f
4:00pm 21 24 mph 1002mb 81f 82f
3:54pm 21 24 mph 1002mb 81f 82f
3:48pm 22 29 mph 1002mb 81f 82f
3:42pm 21 30 mph 1002mb 81f 82f
3:36pm 22 30 mph 1002mb 81f 82f
3:30pm 24 28 mph 1002.1mb 81f 82f
3:24pm 22 28 mph 1002.1mb 81f 82f
3:18pm 23 28 mph 1002.2mb 81f 82f
3:12pm 22 29 mph 1002.1mb 81f 82f
3:06pm 22 29 mph 1002.1mb 81f 82f
3:00pm 22 26 mph 1002.2mb 81f 82f
2:54pm 21 29 mph 1002.2mb 81f 82f
2:48pm 23 29 mph 1002.2mb 80f 82f
2:42pm 24 28 mph 1002.3mb 80f 82f
2:36pm 24 30 mph 1002.3mb 80f 81f
2:30pm 22 32 mph 1002.5mb 80f 81f
2:24pm 22 28 mph 1002.5mb 80f 81f
2:18pm 21 26 mph 1002.6mb 80f 81f
2:12pm 22 29 mph 1002.6mb 80f 81f
2:06pm 23 29 mph 1002.6mb 80f 81f
2:00pm 21 28 mph 1002.8mb 80f 81f
1:54pm 21 29 mph 1002.8mb 79f 81f
1:48pm 22 25 mph 1002.8mb 79f 81f
1:42pm 20 26 mph 1002.9mb 79f 81f
1:36pm 20 28 mph 1002.9mb 79f 81f
1:30pm 21 24 mph 1002.9mb 79f 81f
1:24pm 17 24 mph 1003.1mb 79f 81f
1:18pm 18 24 mph 1003.1mb 79f 81f
1:12pm 21 25 mph 1003.2mb 79f 81f
1:06pm 18 22 mph 1003.3mb 79f 81f
1:00pm 17 23 mph 1003.4mb 79f 80f
12:54pm 20 23 mph 1003.5mb 78f 81f
12:48pm 18 24 mph 1003.6mb 78f 80f
12:42pm 17 22 mph 1003.8mb 78f 80f
12:36pm 16 22 mph 1003.9mb 78f 80f
12:30pm 20 23 mph 1003.9mb 78f 80f
12:24pm 17 21 mph 1004mb 78f 80f
12:18pm 17 22 mph 1004.1mb 78f 80f
12:12pm 17 23 mph 1004mb 78f 80f
12:06pm 17 22 mph 1004.1mb 78f 80f
12:00pm 15 18 mph 1004.1mb 78f 80f
11:54am 15 18 mph 1004.2mb 78f 80f
11:48am 17 21 mph 1004.2mb 78f 80f
11:42am 17 21 mph 1004.3mb 78f 80f
11:36am 16 20 mph 1004.4mb 77f 80f
11:30am 14 20 mph 1004.4mb 77f 80f
11:24am 16 21 mph 1004.3mb 77f 80f
11:18am 18 22 mph 1004.2mb 77f 80f
11:12am 18 23 mph 1004.1mb 77f 80f
11:06am 17 21 mph 1004.1mb 77f 80f
11:00am 16 21 mph 1004mb 77f 80f
10:54am 17 22 mph 1004mb 77f 79f
10:48am 18 23 mph 1003.9mb 77f 79f
10:42am 18 24 mph 1003.8mb 76f 79f
10:36am 20 25 mph 1003.8mb 76f 79f
10:30am 18 25 mph 1003.8mb 76f 79f
10:24am 21 25 mph 1003.8mb 76f 79f
10:18am 16 24 mph 1003.8mb 76f 79f
10:12am 18 26 mph 1003.8mb 76f 79f
10:06am 21 24 mph 1003.8mb 76f 79f
10:00am 20 22 mph 1003.8mb 76f 79f
9:54am 20 23 mph 1003.8mb 76f 79f
9:48am 17 21 mph 1003.8mb 76f 79f
9:42am 18 22 mph 1003.7mb 76f 78f
9:36am 17 20 mph 1003.7mb 76f 78f
9:30am 20 23 mph 1003.7mb 76f 78f
9:24am 17 22 mph 1003.7mb 76f 78f
9:18am 18 22 mph 1003.7mb 76f 78f
9:12am 16 21 mph 1003.7mb 76f 78f
9:06am 17 22 mph 1003.7mb 76f 78f
9:00am 17 22 mph 1003.7mb 76f 78f
8:54am 14 18 mph 1003.7mb 76f 78f
8:48am 18 21 mph 1003.6mb 76f 78f
8:42am 16 21 mph 1003.6mb 76f 78f
8:36am 16 20 mph 1003.5mb 76f 78f
8:30am 14 17 mph 1003.5mb 76f 77f
8:24am 15 22 mph 1003.5mb 76f 77f
8:18am 15 20 mph 1003.4mb 76f 77f
8:12am 15 18 mph 1003.3mb 76f 77f
8:06am 14 18 mph 1003.3mb 76f 77f
8:00am 13 15 mph 1003.3mb 76f 77f
7:54am 13 16 mph 1003.3mb 76f 77f
7:48am 13 15 mph 1003.2mb 76f 77f
7:42am 13 16 mph 1003.1mb 76f 76f
7:36am 10 13 mph 1003.2mb 76f 76f
7:30am 10 13 mph 1003.1mb 76f 76f
7:24am 11 14 mph 1003mb 76f 76f
7:18am 10 13 mph 1002.9mb 76f 76f
7:12am 10 14 mph 1002.8mb 76f 76f
7:06am 9 11 mph 1002.7mb 76f 76f
7:00am 8 11 mph 1002.7mb 76f 76f
6:30am 8 11 mph 1002.4mb 76f 76f
6:24am 10 11 mph 1002.5mb 76f 76f
6:18am 11 14 mph 1002.4mb 76f 76f
6:12am 11 14 mph 1002.4mb 76f 76f
6:06am 11 14 mph 1002.4mb 76f 76f
6:00am 10 14 mph 1002.4mb 76f 76f
5:54am 10 11 mph 1002.3mb 76f 76f
5:48am 9 14 mph 1002.3mb 76f 76f
5:42am 11 15 mph 1002.3mb 76f 77f
5:36am 11 15 mph 1002.3mb 76f 77f
5:30am 13 17 mph 1002.2mb 76f 77f
5:24am 13 15 mph 1002.1mb 76f 77f
5:18am 11 14 mph 1002.3mb 76f 77f
5:12am 11 14 mph 1002.3mb 76f 77f
5:06am 11 15 mph 1002.3mb 76f 77f
5:00am 11 15 mph 1002.3mb 76f 77f
4:54am 10 14 mph 1002.2mb 76f 76f
4:48am 10 13 mph 1002.1mb 76f 76f
4:42am 8 10 mph 1002.1mb 76f 76f
4:36am 7 10 mph 1002.1mb 76f 76f
4:30am 7 10 mph 1002.1mb 76f 76f
4:24am 8 10 mph 1002.1mb 77f 76f
4:18am 7 9 mph 1002.1mb 77f 76f
4:12am 7 9 mph 1002mb 77f 77f
4:06am 8 10 mph 1002.1mb 77f 77f
4:00am 7 9 mph 1002.2mb 77f 77f
3:54am 7 9 mph 1002.2mb 77f 77f
3:48am 6 7 mph 1002.3mb 77f 77f
3:42am 6 7 mph 1002.3mb 77f 77f
3:36am 6 8 mph 1002.3mb 77f 77f
3:30am 7 8 mph 1002.4mb 77f 77f
3:24am 7 8 mph 1002.5mb 77f 77f
3:18am 7 8 mph 1002.6mb 77f 77f
3:12am 7 8 mph 1002.6mb 77f 77f
3:06am 6 8 mph 1002.7mb 77f 77f
3:00am 6 8 mph 1002.7mb 77f 77f
2:54am 6 8 mph 1002.7mb 77f 77f
2:48am 6 8 mph 1002.7mb 77f 77f
2:42am 6 8 mph 1002.8mb 77f 77f
2:36am 6 8 mph 1002.9mb 77f 77f
2:30am 7 8 mph 1002.9mb 77f 77f
2:24am 7 9 mph 1003mb 77f 77f
2:18am 8 10 mph 1003.1mb 77f 77f
2:12am 8 10 mph 1003.1mb 77f 77f
2:06am 8 10 mph 1003.1mb 77f 77f
2:00am 7 10 mph 1003.1mb 77f 77f
1:54am 10 11 mph 1003.2mb 77f 77f
1:48am 10 13 mph 1003.2mb 77f 77f
1:42am 10 13 mph 1003.3mb 77f 77f
1:36am 10 14 mph 1003.3mb 77f 77f
1:30am 11 14 mph 1003.4mb 77f 78f
1:24am 10 15 mph 1003.5mb 77f 78f
1:18am 14 18 mph 1003.5mb 77f 78f
1:12am 14 17 mph 1003.6mb 77f 78f
1:06am 11 14 mph 1003.6mb 77f 78f
1:00am 9 15 mph 1003.7mb 77f 77f
12:54am 10 15 mph 1003.7mb 77f 77f
12:48am 10 15 mph 1003.7mb 77f 77f
12:42am 10 13 mph 1003.7mb 77f 77f
12:36am 10 14 mph 1003.7mb 77f 77f
12:30am 10 13 mph 1003.8mb 77f 77f
12:24am 9 13 mph 1003.8mb 77f 77f
12:18am 9 15 mph 1003.8mb 77f 77f
12:12am 11 14 mph 1003.9mb 77f 77f
12:06am 11 14 mph 1003.8mb 77f 77f
12:00am 11 18 mph 1003.7mb 77f 77f
Thu 04/27 11:54pm 14 17 mph 1003.7mb 77f 77f
11:48pm 14 16 mph 1003.8mb 77f 77f
11:42pm 14 18 mph 1003.9mb 77f 77f
11:36pm 11 17 mph 1004mb 77f 77f
11:30pm 14 17 mph 1003.9mb 77f 77f
11:24pm 14 20 mph 1003.9mb 77f 77f
11:18pm 14 18 mph 1003.9mb 77f 77f
11:12pm 15 18 mph 1003.9mb 77f 77f
11:06pm 16 21 mph 1003.9mb 77f 76f
11:00pm 14 20 mph 1004mb 77f 76f
10:54pm 15 20 mph 1004.1mb 77f 76f
10:48pm 13 18 mph 1004.3mb 77f 76f
10:42pm 14 18 mph 1004.3mb 77f 76f
10:36pm 14 18 mph 1004.5mb 77f 76f
10:30pm 14 16 mph 1004.5mb 77f 76f
10:24pm 13 17 mph 1004.6mb 77f 76f
10:18pm 13 15 mph 1004.6mb 77f 76f
10:12pm 10 14 mph 1004.7mb 77f 76f
10:06pm 9 14 mph 1004.8mb 77f 76f
10:00pm 10 13 mph 1004.8mb 77f 76f
9:54pm 8 14 mph 1004.8mb 77f 76f
9:48pm 13 16 mph 1004.7mb 77f 76f
9:42pm 10 13 mph 1004.7mb 77f 75f
9:36pm 10 15 mph 1004.8mb 77f 75f
9:30pm 8 14 mph 1004.9mb 77f 75f
9:24pm 11 14 mph 1004.9mb 77f 75f
9:18pm 11 15 mph 1004.9mb 77f 75f
9:12pm 13 16 mph 1004.9mb 77f 75f
9:06pm 10 16 mph 1004.9mb 77f 75f
9:00pm 13 17 mph 1004.8mb 77f 75f
8:48pm 13 18 mph 1004.6mb 77f 75f
8:42pm 11 15 mph 1004.7mb 78f 75f
8:36pm 9 14 mph 1004.8mb 78f 75f
8:30pm 9 14 mph 1004.8mb 78f 75f
8:24pm 10 14 mph 1004.7mb 78f 75f
8:18pm 11 15 mph 1004.5mb 78f 74f
8:12pm 9 13 mph 1004.6mb 78f 75f
8:06pm 9 14 mph 1004.7mb 78f 74f
8:00pm 13 16 mph - 78f 74f
7:54pm 11 18 mph - 78f 74f
7:48pm 13 16 mph 1004.4mb 78f 74f
7:42pm 14 17 mph 1004.4mb 78f 74f
7:36pm 11 15 mph 1004.5mb 78f 74f
7:30pm 13 17 mph 1004.5mb 78f 74f
7:24pm 13 16 mph 1004.5mb 78f 74f
7:18pm 10 17 mph 1004.5mb 78f 74f
7:12pm 11 15 mph 1004.4mb 78f 74f
7:06pm 13 17 mph 1004.5mb 78f 74f
7:00pm 14 17 mph 1004.4mb 78f 74f
6:48pm 17 20 mph 1004.1mb 78f 74f
6:42pm 16 20 mph 1004.1mb 78f 74f
6:36pm 15 21 mph 1004.2mb 78f 74f
6:30pm 13 18 mph 1004.2mb 78f 75f
6:24pm 15 18 mph 1004.3mb 78f 74f
6:18pm 13 17 mph 1004.4mb 78f 75f
6:12pm 10 17 mph 1004.5mb 78f 75f
6:06pm 11 17 mph 1004.7mb 78f 75f
6:00pm 13 17 mph 1004.7mb 78f 75f
5:48pm 13 18 mph 1004.6mb 78f 75f
5:42pm 13 16 mph 1004.7mb 78f 75f
5:36pm 13 17 mph 1004.8mb 78f 75f
5:30pm 14 17 mph 1004.9mb 78f 75f
5:24pm 11 15 mph 1005mb 78f 75f
5:18pm 13 16 mph 1005.1mb 78f 75f
5:12pm 9 14 mph 1005.1mb 78f 76f
5:06pm 11 17 mph 1005.1mb 78f 76f
5:00pm 13 16 mph 1005.2mb 78f 75f
4:54pm 14 17 mph 1005.1mb 78f 76f
4:48pm 14 17 mph 1005.1mb 78f 75f
4:42pm 11 16 mph 1005.3mb 78f 76f
4:36pm 13 15 mph 1005.4mb 78f 75f
4:30pm 13 17 mph 1005.6mb 78f 75f
4:24pm 13 15 mph 1005.6mb 78f 76f
4:18pm 8 17 mph 1005.7mb 78f 76f
4:12pm 11 16 mph 1005.7mb 77f 76f
4:06pm 14 17 mph 1005.8mb 77f 76f
4:00pm 11 16 mph 1006.1mb 77f 76f
3:54pm 13 15 mph 1006.2mb 77f 77f
3:48pm 8 11 mph 1006.3mb 77f 77f
3:42pm 9 13 mph 1006.4mb 77f 77f
3:36pm 9 13 mph 1006.5mb 77f 77f
3:30pm 10 14 mph 1006.6mb 77f 77f
3:24pm 8 13 mph 1006.7mb 77f 77f
3:18pm 6 13 mph 1006.9mb 76f 77f
3:12pm 8 11 mph 1007mb 76f 76f
3:06pm 9 11 mph 1007.1mb 76f 77f
3:00pm 7 10 mph 1007.2mb 76f 76f
2:54pm 8 13 mph 1007.4mb 76f 76f
2:48pm 7 11 mph 1007.5mb 76f 77f
2:42pm 8 11 mph 1007.7mb 76f 77f
2:36pm 7 10 mph 1007.7mb 76f 77f
2:30pm 9 14 mph 1007.8mb 76f 77f
2:24pm 8 14 mph 1007.9mb 76f 77f
2:18pm 6 10 mph 1008mb 76f 76f
2:12pm 7 11 mph 1008.1mb 76f 76f
2:06pm 8 11 mph 1008.2mb 76f 76f
2:00pm 6 10 mph 1008.3mb 76f 77f
1:54pm 7 10 mph 1008.3mb 76f 76f
1:48pm 7 11 mph 1008.3mb 76f 76f
1:42pm 7 9 mph 1008.4mb 76f 76f
1:36pm 7 10 mph 1008.5mb 76f 75f
1:30pm 9 13 mph 1008.6mb 76f 75f
1:24pm 6 11 mph 1008.6mb 76f 75f
1:18pm 11 15 mph 1008.6mb 76f 74f
1:12pm 7 15 mph 1008.6mb 76f 75f
1:06pm 11 16 mph 1008.6mb 75f 75f
1:00pm 7 15 mph 1008.6mb 75f 75f
12:48pm 9 11 mph 1008.8mb 75f 74f
12:42pm 11 16 mph 1008.9mb 75f 74f
12:36pm 10 15 mph 1009.1mb 75f 74f
12:30pm 9 14 mph 1009.2mb 75f 74f
12:24pm 11 14 mph 1009.4mb 75f 73f
12:18pm 9 14 mph 1009.4mb 75f 73f
12:12pm 10 15 mph 1009.4mb 75f 73f
12:06pm 14 18 mph 1009.5mb 75f 73f
12:00pm 8 14 mph 1009.5mb 75f 73f
11:48am 10 18 mph 1009.6mb 74f 73f
11:42am 11 16 mph 1009.6mb 74f 73f
11:36am 11 16 mph 1009.7mb 74f 73f
11:30am 11 16 mph 1009.7mb 74f 72f
11:24am 10 15 mph 1009.8mb 74f 73f
11:18am 10 16 mph 1009.7mb 74f 73f
11:12am 10 16 mph 1009.8mb 74f 73f
11:06am 10 15 mph 1009.7mb 74f 73f
11:00am 10 14 mph 1009.6mb 74f 72f
10:54am 9 14 mph 1009.5mb 74f 72f
10:48am 11 15 mph 1009.7mb 74f 72f
10:42am 10 15 mph 1009.7mb 74f 72f
10:36am 9 13 mph 1009.7mb 74f 72f
10:30am 13 17 mph 1009.7mb 74f 72f
10:24am 10 15 mph 1009.5mb 74f 71f
10:18am 8 16 mph 1009.7mb 74f 72f
10:12am 10 15 mph 1009.8mb 74f 71f
10:06am 8 15 mph 1009.7mb 74f 71f
10:00am 9 14 mph 1009.6mb 73f 70f
9:54am 10 15 mph 1009.6mb 74f 70f
9:48am 11 18 mph 1009.8mb 73f 70f
9:42am 10 15 mph 1009.7mb 73f 69f
9:36am 11 21 mph 1009.7mb 73f 69f
9:30am 14 18 mph 1009.8mb 73f 69f
9:24am 14 17 mph 1009.6mb 73f 69f
9:18am 11 15 mph 1009.6mb 73f 69f
9:12am 11 18 mph 1009.5mb 73f 69f
9:06am 11 20 mph 1009.8mb 73f 68f
9:00am 13 17 mph 1009.8mb 73f 68f
8:54am 13 16 mph 1009.8mb 73f 67f
8:48am 11 16 mph 1009.8mb 73f 67f
8:42am 11 15 mph 1009.9mb 73f 67f
8:36am 10 15 mph 1009.9mb 73f 67f
8:30am 7 13 mph 1009.8mb 73f 66f
8:24am 9 14 mph 1009.9mb 73f 66f
8:18am 9 14 mph 1009.8mb 73f 66f
8:12am 9 14 mph 1009.9mb 73f 65f
8:06am 9 13 mph 1009.8mb 73f 65f
8:00am 9 13 mph 1009.7mb 73f 64f
7:54am 8 11 mph 1009.6mb 73f 64f
7:48am 7 10 mph 1009.7mb 73f 63f
7:42am 5 8 mph 1009.7mb 73f 62f
7:36am 6 8 mph 1009.6mb 73f 62f
7:30am 5 7 mph 1009.6mb 73f 61f
7:24am 3 5 mph 1009.6mb 73f 61f
7:18am 3 5 mph 1009.4mb 73f 60f
7:12am 3 5 mph 1009.4mb 73f 60f
7:06am 2 3 mph 1009.4mb 74f 60f
7:00am 3
mph
1009.3mb 74f 60f
6:48am 2 6 mph 1009.1mb 74f 60f
6:42am 5 7 mph 1008.9mb 74f 60f
6:36am 5 7 mph 1008.8mb 74f 61f
6:30am 5 8 mph 1008.7mb 74f 61f
6:24am 6 8 mph 1008.6mb 74f 61f
6:18am 7 9 mph 1008.5mb 74f 61f
6:12am 6 10 mph 1008.5mb 74f 61f
6:06am 6 9 mph 1008.3mb 74f 61f
6:00am 6 9 mph 1008.2mb 74f 61f
5:48am 6 11 mph 1008.2mb 75f 61f
5:42am 8 10 mph 1007.9mb 75f 61f
5:36am 8 13 mph 1008mb 75f 62f
5:30am 9 13 mph 1007.9mb 75f 61f
5:24am 8 11 mph 1008mb 75f 61f
5:18am 8 11 mph 1008.1mb 75f 61f
5:12am 8 11 mph 1008.1mb 75f 61f
5:06am 8 13 mph 1008.2mb 75f 62f
5:00am 8 11 mph 1008.1mb 76f 62f
4:48am 10 14 mph 1008.2mb 76f 62f
4:42am 9 14 mph 1008.2mb 76f 62f
4:36am 8 13 mph 1008.4mb 76f 62f
4:30am 10 13 mph 1008.3mb 76f 62f
4:24am 8 11 mph 1008.4mb 76f 63f
4:18am 8 11 mph 1008.5mb 76f 63f
4:12am 8 11 mph 1008.5mb 76f 63f
4:06am 6 10 mph 1008.6mb 76f 64f
4:00am 9 13 mph 1008.5mb 76f 64f
3:48am 9 14 mph 1008.6mb 76f 64f
3:42am 8 11 mph 1008.7mb 76f 64f
3:36am 6 9 mph 1008.8mb 76f 64f
3:30am 7 11 mph 1008.7mb 76f 64f
3:24am 6 10 mph 1008.8mb 76f 65f
3:18am 8 13 mph 1008.7mb 76f 65f
3:12am 8 13 mph 1008.7mb 76f 65f
3:06am 9 14 mph 1008.6mb 76f 65f
3:00am 9 13 mph 1008.5mb 76f 65f
2:54am 8 11 mph 1008.4mb 76f 65f
2:48am 8 13 mph 1008.3mb 76f 65f
2:42am 7 14 mph 1008.4mb 76f 66f
2:36am 9 15 mph 1008.4mb 76f 67f
2:30am 11 16 mph 1008.4mb 77f 67f
2:24am 11 17 mph 1008.3mb 77f 67f
2:18am 13 16 mph 1008.3mb 77f 67f
2:12am 14 18 mph 1008.3mb 77f 67f
2:06am 11 18 mph 1008.2mb 77f 67f
2:00am 13 18 mph 1008.2mb 77f 68f
1:54am 10 14 mph 1008.4mb 77f 67f
1:48am 10 16 mph 1008.3mb 77f 68f
1:42am 10 14 mph 1008.2mb 77f 68f
1:36am 10 14 mph 1008.2mb 77f 69f
1:30am 10 15 mph 1008.3mb 77f 69f
1:24am 9 18 mph 1008.2mb 77f 69f
1:18am 11 20 mph 1008mb 77f 70f
1:12am 11 18 mph 1007.9mb 77f 70f
1:06am 11 17 mph 1007.8mb 77f 70f
1:00am 11 20 mph 1007.8mb 77f 70f
12:54am 11 18 mph 1007.7mb 77f 70f
12:48am 13 20 mph 1007.5mb 77f 70f
12:42am 14 22 mph 1007.6mb 78f 71f
12:36am 9 13 mph 1007.6mb 78f 70f
12:30am 8 14 mph 1007.6mb 78f 71f
12:24am 13 20 mph 1007.3mb 78f 71f
12:18am 9 18 mph 1007.1mb 78f 71f
12:12am 15 24 mph 1006.9mb 78f 72f
12:06am 13 23 mph 1006.7mb 78f 72f
12:00am 13 20 mph 1006.7mb 78f 72f
Wed 04/26 11:54pm 16 21 mph 1006.8mb 78f 73f
11:48pm 15 21 mph 1006.8mb 78f 73f
11:42pm 15 20 mph 1006.8mb 78f 73f
11:36pm 13 15 mph 1006.8mb 78f 73f
11:30pm 14 24 mph 1006.8mb 78f 74f
11:24pm 14 26 mph 1006.6mb 78f 74f
11:18pm 15 21 mph 1006.4mb 78f 74f
11:12pm 15 22 mph 1006.3mb 79f 75f
11:06pm 17 24 mph 1006.2mb 79f 75f
11:00pm 13 24 mph 1006.1mb 79f 75f
10:54pm 14 20 mph 1006mb 79f 75f
10:48pm 11 16 mph 1006mb 79f 75f
10:42pm 13 17 mph 1005.9mb 79f 76f
10:36pm 11 18 mph 1005.9mb 79f 76f
10:30pm 10 21 mph 1005.7mb 79f 76f
10:24pm 10 17 mph 1005.5mb 79f 76f
10:18pm 10 15 mph 1005.3mb 79f 77f
10:12pm 6 9 mph 1005.1mb 79f 77f
10:06pm 7 9 mph 1005mb 79f 78f
10:00pm 6 8 mph 1005mb 80f 78f
9:54pm 6 8 mph 1004.8mb 80f 78f
9:48pm 7 9 mph 1004.7mb 80f 79f
9:42pm 6 8 mph 1004.6mb 80f 79f
9:36pm 6 7 mph 1004.5mb 80f 78f
9:30pm 5 7 mph 1004.4mb 80f 78f
9:24pm 6 10 mph 1004.3mb 80f 80f
9:18pm 8 11 mph 1004.2mb 80f 81f
9:12pm 7 9 mph 1004.1mb 80f 81f
9:06pm 7 11 mph 1004mb 80f 82f
9:00pm 7 10 mph 1003.8mb 80f 82f
8:48pm 7 9 mph 1003.5mb 80f 81f
8:42pm 6 7 mph 1003.4mb 80f 82f
8:36pm 5 6 mph 1003.2mb 80f 82f
8:30pm 3 6 mph 1003mb 80f 82f
8:24pm 5 6 mph 1002.9mb 80f 83f
8:18pm 5 7 mph 1002.8mb 80f 84f
8:12pm 7 9 mph 1002.6mb 80f 85f
8:06pm 5 7 mph 1002.5mb 80f 85f
8:00pm 6 8 mph 1002.3mb 80f 86f
7:48pm 6 9 mph 1002.1mb 80f 87f
7:42pm 6 9 mph 1001.9mb 79f 88f
7:36pm 6 7 mph 1001.7mb 79f 89f
7:30pm 5 6 mph 1001.6mb 79f 89f
7:24pm 5 7 mph 1001.4mb 79f 90f
7:18pm 3 7 mph 1001.3mb 79f 91f
7:12pm 5 7 mph 1001.3mb 79f 91f
7:06pm 5 8 mph 1001.2mb 79f 92f
7:00pm 6 9 mph 1001.1mb 79f 92f
6:48pm 8 13 mph 1001mb 79f 93f
6:42pm 10 15 mph 1000.9mb 79f 93f
6:36pm 9 14 mph 1000.8mb 79f 94f
6:30pm 10 14 mph 1000.7mb 79f 94f
6:24pm 10 14 mph 1000.6mb 79f 94f
6:18pm 10 16 mph 1000.6mb 80f 94f
6:12pm 9 15 mph 1000.6mb 80f 94f
6:06pm 10 14 mph 1000.6mb 79f 94f
6:00pm 13 18 mph 1000.5mb 79f 94f
5:48pm 11 18 mph 1000.5mb 78f 94f
5:42pm 14 20 mph 1000.5mb 79f 94f
5:36pm 10 14 mph 1000.5mb 78f 95f
5:30pm 9 16 mph 1000.4mb 78f 95f
5:24pm 10 18 mph 1000.3mb 78f 95f
5:18pm 15 20 mph 1000.3mb 78f 94f
5:12pm 15 20 mph 1000.2mb 78f 95f
5:06pm 15 20 mph 1000.2mb 78f 95f
5:00pm 14 20 mph 1000.2mb 78f 95f
4:48pm 13 18 mph 1000.2mb 78f 94f
4:42pm 11 17 mph 1000.2mb 78f 94f
4:36pm 11 20 mph 1000.2mb 78f 94f
4:30pm 13 18 mph 1000.2mb 78f 94f
4:24pm 15 21 mph 1000.2mb 78f 94f
4:18pm 14 17 mph 1000.2mb 78f 94f
4:12pm 13 18 mph 1000.2mb 78f 93f
4:06pm 11 16 mph 1000.2mb 78f 94f
4:00pm 11 18 mph 1000.2mb 77f 93f
3:54pm 11 17 mph 1000.2mb 77f 93f
3:48pm 9 16 mph 1000.2mb 77f 92f
3:42pm 11 15 mph 1000.2mb 77f 92f
3:36pm 11 14 mph 1000.1mb 77f 92f
3:30pm 11 18 mph 1000.2mb 77f 91f
3:24pm 13 17 mph 1000.2mb 77f 91f
3:18pm 13 18 mph 1000.2mb 77f 91f
3:12pm 8 13 mph 1000.3mb 77f 90f
3:06pm 9 15 mph 1000.4mb 77f 90f
3:00pm 9 15 mph 1000.5mb 77f 90f
2:54pm 11 15 mph 1000.6mb 77f 89f
2:48pm 10 17 mph 1000.7mb 77f 89f
2:36pm 8 13 mph 1000.7mb 78f 89f
2:30pm 10 15 mph 1000.7mb 78f 88f
2:24pm 13 18 mph 1000.7mb 78f 88f
2:18pm 10 15 mph 1000.7mb 79f 88f
2:12pm 7 10 mph 1000.6mb 79f 85f
2:06pm 5 8 mph 1000.6mb 79f 84f
2:00pm 8 9 mph 1000.7mb 78f 83f
1:54pm 8 10 mph 1000.7mb 78f 82f
1:48pm 8 9 mph 1000.7mb 78f 81f
1:42pm 8 9 mph 1000.9mb 78f 81f
1:36pm 7 8 mph 1000.9mb 78f 81f
1:30pm 8 10 mph 1000.9mb 78f 80f
1:24pm 9 10 mph 1000.9mb 78f 80f
1:18pm 9 10 mph 1000.9mb 78f 80f
1:12pm 10 11 mph 1000.9mb 78f 80f
1:06pm 8 10 mph 1000.9mb 78f 80f
1:00pm 9 11 mph 1001mb 78f 79f
12:54pm 11 13 mph 1001mb 77f 79f
12:48pm 10 14 mph 1000.9mb 77f 79f
12:42pm 10 14 mph 1000.9mb 77f 79f
12:36pm 10 13 mph 1001.1mb 77f 79f
12:30pm 10 13 mph 1001.2mb 77f 79f
12:24pm 11 13 mph 1001.2mb 77f 79f
12:18pm 10 11 mph 1001.3mb 76f 79f
12:12pm 9 11 mph 1001.3mb 76f 79f
12:06pm 11 13 mph 1001.3mb 76f 78f
12:00pm 13 14 mph 1001.3mb 77f 78f